User: anonymous   Login
Location: Columbia
(38.9520°N, 92.3340°W)
Time: 21:13:37
(UTC-05:00)
Language:

Cosmos 1603 - Orbit

View from above orbital plane
View from above orbital plane
View from above satellite
View from above satellite

Ground track
Ground track

The orbit data is extracted from the following two-line orbital elements,

1 15333U 84106A   15188.21085193  .00000351  00000-0  20895-3 0  9992
2 15333 071.0263 141.0714 0020769 213.8096 241.7504 14.14005941587762
Epoch (UTC): 07 July 2015 05:03:37
Eccentricity: 0.0020769
inclination: 71.0263°
perigee height: 830 km
apogee height: 861 km
right ascension of ascending node: 141.0714°
argument of perigee: 213.8096°
revolutions per day: 14.14005941
mean anomaly at epoch: 241.7504°
orbit number at epoch: 58776

The dashed part of the orbit path shows where the satellite is in the earth's shadow,  

DLR